星链-32298 (STARLINK-32298)

导读

STARLINK-32298是美国SpaceX公司于2024年10月15日发射的星链星座卫星,运行于近地低轨道。作为星链全球卫星互联网项目的组成部分,它旨在为全球尤其是偏远无基础设施覆盖区域提供高速低延迟宽带服务,可支持海事、航空、应急通信等多元商业及特殊场景应用,也进一步扩充了星链已大规模部署的低轨卫星星座规模。星链的持续扩张也引发了关于太空拥堵和天文观测影响的讨论。

基本信息
目录编号:
61525
目录名称:
STARLINK-32298
国际标识:
2024-183S
轨道中心:
EARTH
卫星名称:
星链-32298
卫星全名:
星链-32298 (STARLINK-32298)
卫星状态:
在轨 (已飞行689 天)
发射日期:
2024-10-15 UTC
国别 :
美国 (US)
星等 :
--
轨道信息
数据来源 国际轨道数据 AOE轨道数据
星历时间 2026-09-04T03:34:54+0800
18小时前
查看轨道信息
2026-09-02T17:00:00+0800
2天前
查看轨道信息
半长轴 6848.846km 6848.865km
偏心率 0.000109 0.0000697
轨道倾角 53.162° 53.159°
近地点辐角 98.952° 35.114°
升交点赤经 33.691° 40.403°
平近点角 261.161° 295.230°
近地点 469.962km 470.25km
远地点 471.456km 471.206km
周期 94.013分钟 94.013分钟
每日圈数 15.317107 15.317041
详细信息
固有亮度:
5
最大亮度:
2.5
卫星平台:
Starlink V1.0
覆盖范围:
全球
运营商:
太空探索技术公司
运营商所在国:
美国
制造商(研发单位):
太空探索技术公司
制造商所在国:
美国
使用方式:
暂无
卫星简介
Starlink 计划是 SpaceX 推出的全球卫星互联网项目,通过发射低轨道卫星,为全球尤其是偏远地区提供高速、低延迟的互联网服务。自 2019 年起,Starlink 已部署数千颗卫星,旨在缩小全球数字鸿沟,推动互联网普及。该项目还为军事、航空等行业提供通信支持,带来广泛经济效益。
2D轨道图
3D轨道图
轨道高度分析图
轨道倾角分析图
轨道综合分析图
查看轨道综合分析图
交会数据列表
事件ID 空间交会对象 最接近时刻(TCA) 交会距离 交会风险概率(CRP) 交会风险指数(CRI) 操作
CDM_260905-181806-152506-388821
2026-09-05T
18:18:19+0000
1.242 km
极远距离
1.060957E-5 中风险 0.56
CDM_260906-073706-152506-388821
2026-09-06T
07:37:09+0000
2.162 km
极远距离
2.023333E-6 低风险 0.41
CDM_260905-194705-322406-152521
2026-09-05T
19:47:08+0000
2.127 km
极远距离
1.984887E-6 低风险 0.41
CDM_260829-041506-152506-923022
2026-08-29T
04:15:51+0000
2.481 km
极远距离
1.766243E-6 低风险 0.4
CDM_260905-053306-152506-545721
2026-09-05T
05:33:55+0000
2.661 km
极远距离
1.238925E-6 低风险 0.37
CDM_260906-031306-152506-839321
2026-09-06T
03:13:07+0000
2.983 km
极远距离
7.979956E-7 极低风险 0.33